Time,TemperatureF,DewpointF,PressureIn,WindDirection,WindDirectionDegrees,WindSpeedMPH,WindSpeedGustMPH,Humidity,HourlyPrecipIn,Conditions,Clouds,dailyrainin,SoftwareType,DateUTC
2013-02-26 00:05:00,73.5,71.0,29.81,ESE,109,3.0,-999.0,92,0.00,,,0.00,Wunderground v.1.15,2013-02-26 05:05:00,
2013-02-26 00:09:00,73.5,71.0,29.82,SE,144,3.0,-999.0,92,0.00,,,0.00,Wunderground v.1.15,2013-02-26 05:09:00,
2013-02-26 00:14:00,73.5,71.0,29.82,ESE,121,2.0,-999.0,92,0.00,,,0.00,Wunderground v.1.15,2013-02-26 05:14:00,
2013-02-26 00:19:00,73.5,71.0,29.82,SE,132,2.0,-999.0,92,0.00,,,0.00,Wunderground v.1.15,2013-02-26 05:19:00,
2013-02-26 00:24:00,73.5,71.0,29.81,East,95,3.0,-999.0,92,0.00,,,0.00,Wunderground v.1.15,2013-02-26 05:24:00,
2013-02-26 00:29:00,73.5,71.0,29.81,ESE,118,4.0,-999.0,92,0.00,,,0.00,Wunderground v.1.15,2013-02-26 05:29:00,
2013-02-26 00:34:00,73.5,71.0,29.80,ESE,113,4.0,-999.0,92,0.00,,,0.00,Wunderground v.1.15,2013-02-26 05:34:00,
2013-02-26 00:44:00,73.5,71.0,29.80,ESE,121,3.0,-999.0,92,0.00,,,0.00,Wunderground v.1.15,2013-02-26 05:44:00,
2013-02-26 00:49:00,73.5,71.0,29.80,SE,125,4.0,-999.0,92,0.00,,,0.00,Wunderground v.1.15,2013-02-26 05:49:00,
2013-02-26 00:54:00,73.5,71.0,29.80,ESE,114,4.0,-999.0,92,0.00,,,0.00,Wunderground v.1.15,2013-02-26 05:54:00,
2013-02-26 00:59:00,73.5,71.0,29.80,SE,127,4.0,-999.0,92,0.00,,,0.00,Wunderground v.1.15,2013-02-26 05:59:00,
2013-02-26 01:05:00,73.5,71.0,29.80,SE,139,4.0,-999.0,92,0.00,,,0.00,Wunderground v.1.15,2013-02-26 06:05:00,
2013-02-26 01:14:00,73.6,70.8,29.79,East,101,4.0,-999.0,91,0.00,,,0.00,Wunderground v.1.15,2013-02-26 06:14:00,
2013-02-26 01:19:00,73.6,70.8,29.79,East,97,4.0,-999.0,91,0.00,,,0.00,Wunderground v.1.15,2013-02-26 06:19:00,
2013-02-26 01:24:00,73.7,70.9,29.79,ESE,117,4.0,-999.0,91,0.00,,,0.00,Wunderground v.1.15,2013-02-26 06:24:00,
2013-02-26 01:34:00,73.6,70.8,29.78,SE,131,3.0,-999.0,91,0.00,,,0.00,Wunderground v.1.15,2013-02-26 06:34:00,
2013-02-26 01:39:00,73.6,70.5,29.78,ESE,114,3.0,-999.0,90,0.00,,,0.00,Wunderground v.1.15,2013-02-26 06:39:00,
2013-02-26 01:49:00,73.7,70.3,29.78,South,179,2.0,-999.0,89,0.00,,,0.00,Wunderground v.1.15,2013-02-26 06:49:00,
2013-02-26 01:54:00,73.7,70.3,29.78,East,98,3.0,-999.0,89,0.00,,,0.00,Wunderground v.1.15,2013-02-26 06:54:00,
2013-02-26 01:59:00,73.8,70.4,29.78,SE,128,4.0,-999.0,89,0.00,,,0.00,Wunderground v.1.15,2013-02-26 06:59:00,
2013-02-26 02:05:00,73.8,70.0,29.78,ESE,104,4.0,-999.0,88,0.00,,,0.00,Wunderground v.1.15,2013-02-26 07:05:00,
2013-02-26 02:14:00,73.8,70.0,29.78,SSE,157,3.0,-999.0,88,0.00,,,0.00,Wunderground v.1.15,2013-02-26 07:14:00,
2013-02-26 02:19:00,73.8,70.0,29.78,SE,133,3.0,-999.0,88,0.00,,,0.00,Wunderground v.1.15,2013-02-26 07:19:00,
2013-02-26 02:24:00,73.8,70.0,29.78,SE,135,3.0,-999.0,88,0.00,,,0.00,Wunderground v.1.15,2013-02-26 07:24:00,
2013-02-26 02:29:00,73.7,69.9,29.78,ESE,117,3.0,-999.0,88,0.00,,,0.00,Wunderground v.1.15,2013-02-26 07:29:00,
2013-02-26 02:35:00,73.7,69.9,29.78,SE,126,2.0,-999.0,88,0.00,,,0.00,Wunderground v.1.15,2013-02-26 07:35:00,
2013-02-26 02:40:00,73.7,69.9,29.78,SSE,157,3.0,-999.0,88,0.00,,,0.00,Wunderground v.1.15,2013-02-26 07:40:00,
2013-02-26 02:49:00,73.8,70.4,29.78,SE,134,2.0,-999.0,89,0.00,,,0.00,Wunderground v.1.15,2013-02-26 07:49:00,
2013-02-26 02:54:00,73.8,70.4,29.78,SE,128,2.0,-999.0,89,0.00,,,0.00,Wunderground v.1.15,2013-02-26 07:54:00,
2013-02-26 02:59:00,73.9,70.8,29.78,SE,126,3.0,-999.0,90,0.00,,,0.00,Wunderground v.1.15,2013-02-26 07:59:00,
2013-02-26 03:09:00,74.1,71.0,29.78,ESE,122,4.0,-999.0,90,0.00,,,0.00,Wunderground v.1.15,2013-02-26 08:09:00,
2013-02-26 03:14:00,74.2,71.1,29.78,SE,134,4.0,-999.0,90,0.00,,,0.00,Wunderground v.1.15,2013-02-26 08:14:00,
2013-02-26 03:19:00,74.3,71.5,29.77,SSE,162,4.0,-999.0,91,0.00,,,0.00,Wunderground v.1.15,2013-02-26 08:19:00,
2013-02-26 03:24:00,74.4,71.6,29.77,SE,141,4.0,-999.0,91,0.00,,,0.00,Wunderground v.1.15,2013-02-26 08:24:00,
2013-02-26 03:29:00,74.4,71.6,29.77,ESE,123,3.0,-999.0,91,0.00,,,0.00,Wunderground v.1.15,2013-02-26 08:29:00,
2013-02-26 03:35:00,74.4,71.6,29.77,SSE,157,4.0,-999.0,91,0.00,,,0.00,Wunderground v.1.15,2013-02-26 08:35:00,
2013-02-26 03:44:00,74.5,71.7,29.77,East,100,5.0,-999.0,91,0.00,,,0.00,Wunderground v.1.15,2013-02-26 08:44:00,
2013-02-26 03:49:00,74.5,71.7,29.76,ESE,110,4.0,-999.0,91,0.00,,,0.00,Wunderground v.1.15,2013-02-26 08:49:00,
2013-02-26 03:54:00,74.5,71.7,29.76,East,79,4.0,-999.0,91,0.00,,,0.00,Wunderground v.1.15,2013-02-26 08:54:00,
2013-02-26 03:59:00,74.5,71.7,29.76,SE,126,4.0,-999.0,91,0.00,,,0.00,Wunderground v.1.15,2013-02-26 08:59:00,
2013-02-26 04:09:00,74.6,71.8,29.75,East,88,5.0,-999.0,91,0.00,,,0.00,Wunderground v.1.15,2013-02-26 09:09:00,
2013-02-26 04:14:00,74.6,72.1,29.75,ESE,113,4.0,-999.0,92,0.00,,,0.00,Wunderground v.1.15,2013-02-26 09:14:00,
2013-02-26 04:19:00,74.6,71.8,29.76,ESE,104,4.0,-999.0,91,0.00,,,0.00,Wunderground v.1.15,2013-02-26 09:19:00,
2013-02-26 04:24:00,74.7,71.9,29.76,ESE,115,4.0,-999.0,91,0.00,,,0.00,Wunderground v.1.15,2013-02-26 09:24:00,
2013-02-26 04:29:00,74.7,71.9,29.76,ESE,121,3.0,-999.0,91,0.00,,,0.00,Wunderground v.1.15,2013-02-26 09:29:00,
2013-02-26 04:34:00,74.7,71.9,29.75,ESE,122,3.0,-999.0,91,0.00,,,0.00,Wunderground v.1.15,2013-02-26 09:34:00,
2013-02-26 04:44:00,74.8,72.0,29.75,SE,142,4.0,-999.0,91,0.00,,,0.00,Wunderground v.1.15,2013-02-26 09:44:00,
2013-02-26 04:49:00,74.9,72.1,29.75,ESE,105,4.0,-999.0,91,0.00,,,0.00,Wunderground v.1.15,2013-02-26 09:49:00,
2013-02-26 04:54:00,74.9,72.1,29.75,SE,125,4.0,-999.0,91,0.00,,,0.00,Wunderground v.1.15,2013-02-26 09:54:00,
2013-02-26 04:59:00,74.9,72.1,29.75,ESE,115,3.0,-999.0,91,0.00,,,0.00,Wunderground v.1.15,2013-02-26 09:59:00,
2013-02-26 05:05:00,74.9,72.1,29.75,ESE,114,4.0,-999.0,91,0.00,,,0.00,Wunderground v.1.15,2013-02-26 10:05:00,
2013-02-26 05:14:00,74.9,71.8,29.76,SSE,157,4.0,-999.0,90,0.00,,,0.00,Wunderground v.1.15,2013-02-26 10:14:00,
2013-02-26 05:19:00,75.0,71.9,29.76,SE,140,5.0,-999.0,90,0.00,,,0.00,Wunderground v.1.15,2013-02-26 10:19:00,
2013-02-26 05:24:00,75.1,72.0,29.77,SE,134,5.0,-999.0,90,0.00,,,0.00,Wunderground v.1.15,2013-02-26 10:24:00,
2013-02-26 05:29:00,75.3,71.8,29.77,SE,124,5.0,-999.0,89,0.00,,,0.00,Wunderground v.1.15,2013-02-26 10:29:00,
2013-02-26 05:39:00,75.5,72.0,29.77,SE,136,6.0,-999.0,89,0.00,,,0.00,Wunderground v.1.15,2013-02-26 10:39:00,
2013-02-26 05:44:00,75.4,71.9,29.77,SSE,157,5.0,-999.0,89,0.00,,,0.00,Wunderground v.1.15,2013-02-26 10:44:00,
2013-02-26 05:49:00,75.3,72.2,29.78,SSE,152,6.0,-999.0,90,0.00,,,0.00,Wunderground v.1.15,2013-02-26 10:49:00,
2013-02-26 05:54:00,75.2,72.1,29.78,South,182,6.0,-999.0,90,0.00,,,0.00,Wunderground v.1.15,2013-02-26 10:54:00,
2013-02-26 05:59:00,75.1,72.0,29.79,SSE,153,7.0,-999.0,90,0.00,,,0.00,Wunderground v.1.15,2013-02-26 10:59:00,
2013-02-26 06:09:00,74.9,72.1,29.79,SSE,152,6.0,-999.0,91,0.00,,,0.00,Wunderground v.1.15,2013-02-26 11:09:00,
2013-02-26 06:14:00,74.8,72.0,29.79,South,173,6.0,-999.0,91,0.00,,,0.00,Wunderground v.1.15,2013-02-26 11:14:00,
2013-02-26 06:19:00,74.7,71.9,29.79,South,171,6.0,-999.0,91,0.00,,,0.00,Wunderground v.1.15,2013-02-26 11:19:00,
2013-02-26 06:24:00,74.6,71.8,29.79,SSE,159,6.0,-999.0,91,0.00,,,0.00,Wunderground v.1.15,2013-02-26 11:24:00,
2013-02-26 06:29:00,74.5,71.7,29.79,SE,146,6.0,-999.0,91,0.00,,,0.00,Wunderground v.1.15,2013-02-26 11:29:00,
2013-02-26 06:35:00,74.4,71.6,29.79,SE,134,6.0,-999.0,91,0.00,,,0.00,Wunderground v.1.15,2013-02-26 11:35:00,
2013-02-26 06:44:00,74.2,71.4,29.79,SSE,150,5.0,-999.0,91,0.00,,,0.00,Wunderground v.1.15,2013-02-26 11:44:00,
2013-02-26 06:49:00,74.2,71.4,29.79,SSE,159,5.0,-999.0,91,0.00,,,0.00,Wunderground v.1.15,2013-02-26 11:49:00,
2013-02-26 06:54:00,74.1,71.3,29.79,SSE,152,6.0,-999.0,91,0.00,,,0.00,Wunderground v.1.15,2013-02-26 11:54:00,
2013-02-26 06:59:00,74.1,71.6,29.79,ESE,119,5.0,-999.0,92,0.00,,,0.00,Wunderground v.1.15,2013-02-26 11:59:00,
2013-02-26 07:09:00,74.1,71.3,29.80,SSE,151,6.0,-999.0,91,0.00,,,0.00,Wunderground v.1.15,2013-02-26 12:09:00,
2013-02-26 07:14:00,74.2,71.4,29.80,SE,131,6.0,-999.0,91,0.00,,,0.00,Wunderground v.1.15,2013-02-26 12:14:00,
2013-02-26 07:19:00,74.4,71.6,29.79,SSE,163,6.0,-999.0,91,0.00,,,0.00,Wunderground v.1.15,2013-02-26 12:19:00,
2013-02-26 07:24:00,74.6,71.5,29.80,SE,129,6.0,-999.0,90,0.00,,,0.00,Wunderground v.1.15,2013-02-26 12:24:00,
2013-02-26 07:29:00,74.8,71.7,29.80,ESE,117,7.0,-999.0,90,0.00,,,0.00,Wunderground v.1.15,2013-02-26 12:29:00,
2013-02-26 07:35:00,74.9,71.8,29.80,SE,132,6.0,-999.0,90,0.00,,,0.00,Wunderground v.1.15,2013-02-26 12:35:00,
2013-02-26 07:44:00,75.1,72.0,29.80,South,183,6.0,-999.0,90,0.00,,,0.00,Wunderground v.1.15,2013-02-26 12:44:00,
2013-02-26 07:49:00,75.0,71.9,29.81,SSE,167,6.0,-999.0,90,0.00,,,0.00,Wunderground v.1.15,2013-02-26 12:49:00,
2013-02-26 07:54:00,75.1,72.0,29.81,SE,143,6.0,-999.0,90,0.00,,,0.00,Wunderground v.1.15,2013-02-26 12:54:00,
2013-02-26 07:59:00,75.2,72.1,29.81,SE,136,6.0,-999.0,90,0.00,,,0.00,Wunderground v.1.15,2013-02-26 12:59:00,
2013-02-26 08:09:00,75.4,71.9,29.82,SE,140,7.0,-999.0,89,0.00,,,0.00,Wunderground v.1.15,2013-02-26 13:09:00,
2013-02-26 08:14:00,75.6,72.1,29.82,SSE,149,7.0,-999.0,89,0.00,,,0.00,Wunderground v.1.15,2013-02-26 13:14:00,
2013-02-26 08:19:00,75.7,72.2,29.82,South,179,8.0,-999.0,89,0.00,,,0.00,Wunderground v.1.15,2013-02-26 13:19:00,
2013-02-26 08:24:00,75.8,72.3,29.82,SSE,167,8.0,-999.0,89,0.00,,,0.00,Wunderground v.1.15,2013-02-26 13:24:00,
2013-02-26 08:29:00,75.9,72.1,29.83,SSE,162,7.0,-999.0,88,0.00,,,0.00,Wunderground v.1.15,2013-02-26 13:29:00,
2013-02-26 08:34:00,76.0,72.2,29.83,SSE,157,6.0,-999.0,88,0.00,,,0.00,Wunderground v.1.15,2013-02-26 13:34:00,
2013-02-26 08:39:00,76.1,72.3,29.83,SSE,164,7.0,-999.0,88,0.00,,,0.00,Wunderground v.1.15,2013-02-26 13:39:00,
2013-02-26 08:44:00,76.3,72.5,29.83,SE,133,7.0,-999.0,88,0.00,,,0.00,Wunderground v.1.15,2013-02-26 13:44:00,
2013-02-26 08:54:00,76.7,72.5,29.84,SE,141,7.0,-999.0,87,0.00,,,0.00,Wunderground v.1.15,2013-02-26 13:54:00,
2013-02-26 08:59:00,76.9,72.4,29.84,SSE,150,8.0,-999.0,86,0.00,,,0.00,Wunderground v.1.15,2013-02-26 13:59:00,
2013-02-26 09:04:00,77.0,72.5,29.84,SSE,150,8.0,-999.0,86,0.00,,,0.00,Wunderground v.1.15,2013-02-26 14:04:00,
2013-02-26 09:09:00,76.9,72.4,29.84,SE,134,8.0,-999.0,86,0.00,,,0.00,Wunderground v.1.15,2013-02-26 14:09:00,
2013-02-26 09:15:00,76.9,72.7,29.84,SE,124,8.0,-999.0,87,0.00,,,0.00,Wunderground v.1.15,2013-02-26 14:15:00,
2013-02-26 09:24:00,77.1,72.6,29.84,ESE,107,9.0,-999.0,86,0.00,,,0.00,Wunderground v.1.15,2013-02-26 14:24:00,
2013-02-26 09:29:00,77.3,72.8,29.84,SE,129,10.0,-999.0,86,0.00,,,0.00,Wunderground v.1.15,2013-02-26 14:29:00,
2013-02-26 09:34:00,77.5,73.0,29.84,SE,136,9.0,-999.0,86,0.00,,,0.00,Wunderground v.1.15,2013-02-26 14:34:00,
2013-02-26 09:39:00,77.7,72.8,29.84,ESE,109,8.0,-999.0,85,0.00,,,0.00,Wunderground v.1.15,2013-02-26 14:39:00,
2013-02-26 09:45:00,77.9,73.0,29.84,SSE,159,8.0,-999.0,85,0.00,,,0.00,Wunderground v.1.15,2013-02-26 14:45:00,
2013-02-26 09:54:00,78.3,73.1,29.84,South,188,8.0,-999.0,84,0.00,,,0.00,Wunderground v.1.15,2013-02-26 14:54:00,
2013-02-26 09:59:00,78.2,73.0,29.83,SSE,161,9.0,-999.0,84,0.00,,,0.00,Wunderground v.1.15,2013-02-26 14:59:00,
2013-02-26 10:04:00,78.6,73.0,29.82,ENE,74,9.0,-999.0,83,0.00,,,0.00,Wunderground v.1.15,2013-02-26 15:04:00,
2013-02-26 10:09:00,78.7,72.7,29.82,SE,144,10.0,-999.0,82,0.00,,,0.00,Wunderground v.1.15,2013-02-26 15:09:00,
2013-02-26 10:14:00,79.0,73.0,29.83,SSE,160,10.0,-999.0,82,0.00,,,0.00,Wunderground v.1.15,2013-02-26 15:14:00,
2013-02-26 10:24:00,79.1,72.8,29.84,SSE,163,10.0,-999.0,81,0.00,,,0.00,Wunderground v.1.15,2013-02-26 15:24:00,
2013-02-26 10:29:00,79.2,72.9,29.85,SE,134,11.0,-999.0,81,0.00,,,0.00,Wunderground v.1.15,2013-02-26 15:29:00,
2013-02-26 10:34:00,79.4,73.1,29.86,SSE,166,10.0,-999.0,81,0.00,,,0.00,Wunderground v.1.15,2013-02-26 15:34:00,
2013-02-26 10:39:00,79.5,73.5,29.86,SSE,157,9.0,-999.0,82,0.00,,,0.00,Wunderground v.1.15,2013-02-26 15:39:00,
2013-02-26 10:44:00,79.6,73.3,29.87,SSE,160,9.0,-999.0,81,0.00,,,0.00,Wunderground v.1.15,2013-02-26 15:44:00,
2013-02-26 10:49:00,79.6,73.3,29.87,South,180,10.0,-999.0,81,0.00,,,0.00,Wunderground v.1.15,2013-02-26 15:49:00,
2013-02-26 10:54:00,79.6,73.3,29.86,SSE,168,11.0,-999.0,81,0.00,,,0.00,Wunderground v.1.15,2013-02-26 15:54:00,
2013-02-26 10:59:00,79.7,73.0,29.86,SSE,164,11.0,-999.0,80,0.00,,,0.00,Wunderground v.1.15,2013-02-26 15:59:00,
2013-02-26 11:09:00,79.9,73.2,29.87,SSW,192,11.0,-999.0,80,0.00,,,0.00,Wunderground v.1.15,2013-02-26 16:09:00,
2013-02-26 11:14:00,79.8,73.4,29.87,SSE,168,10.0,-999.0,81,0.00,,,0.00,Wunderground v.1.15,2013-02-26 16:14:00,
2013-02-26 11:19:00,80.0,73.3,29.87,SSE,161,10.0,-999.0,80,0.00,,,0.00,Wunderground v.1.15,2013-02-26 16:19:00,
2013-02-26 11:24:00,80.2,73.5,29.86,SE,145,9.0,-999.0,80,0.00,,,0.00,Wunderground v.1.15,2013-02-26 16:24:00,
2013-02-26 11:29:00,80.2,73.5,29.86,South,169,11.0,-999.0,80,0.00,,,0.00,Wunderground v.1.15,2013-02-26 16:29:00,
2013-02-26 11:34:00,80.3,73.9,29.86,SSE,153,11.0,-999.0,81,0.00,,,0.00,Wunderground v.1.15,2013-02-26 16:34:00,
2013-02-26 11:40:00,80.7,73.6,29.86,SSE,150,10.0,-999.0,79,0.00,,,0.00,Wunderground v.1.15,2013-02-26 16:40:00,
2013-02-26 11:49:00,80.3,72.8,29.86,SE,126,11.0,-999.0,78,0.00,,,0.00,Wunderground v.1.15,2013-02-26 16:49:00,
2013-02-26 11:54:00,80.1,73.4,29.85,SSE,157,11.0,-999.0,80,0.00,,,0.00,Wunderground v.1.15,2013-02-26 16:54:00,
2013-02-26 11:59:00,80.3,72.8,29.86,SSE,154,9.0,-999.0,78,0.00,,,0.00,Wunderground v.1.15,2013-02-26 16:59:00,
2013-02-26 12:09:00,79.6,72.9,29.86,South,186,10.0,-999.0,80,0.00,,,0.00,Wunderground v.1.15,2013-02-26 17:09:00,
2013-02-26 12:14:00,79.4,73.1,29.86,South,180,10.0,-999.0,81,0.00,,,0.00,Wunderground v.1.15,2013-02-26 17:14:00,
2013-02-26 12:19:00,79.2,72.9,29.85,South,182,10.0,-999.0,81,0.00,,,0.00,Wunderground v.1.15,2013-02-26 17:19:00,
2013-02-26 12:24:00,79.1,72.8,29.84,SSE,157,10.0,-999.0,81,0.00,,,0.00,Wunderground v.1.15,2013-02-26 17:24:00,
2013-02-26 12:29:00,79.6,73.3,29.83,SSE,150,11.0,-999.0,81,0.00,,,0.00,Wunderground v.1.15,2013-02-26 17:29:00,
2013-02-26 12:40:00,79.7,73.3,29.83,SE,145,10.0,-999.0,81,0.00,,,0.00,Wunderground v.1.15,2013-02-26 17:40:00,
2013-02-26 12:49:00,80.0,73.3,29.83,SSE,165,10.0,-999.0,80,0.00,,,0.00,Wunderground v.1.15,2013-02-26 17:49:00,
2013-02-26 12:54:00,80.0,73.6,29.83,SE,137,11.0,-999.0,81,0.00,,,0.00,Wunderground v.1.15,2013-02-26 17:54:00,
2013-02-26 12:59:00,79.9,73.2,29.83,South,184,11.0,-999.0,80,0.00,,,0.00,Wunderground v.1.15,2013-02-26 17:59:00,
2013-02-26 13:09:00,80.4,73.3,29.83,SSE,150,10.0,-999.0,79,0.00,,,0.00,Wunderground v.1.15,2013-02-26 18:09:00,
2013-02-26 13:14:00,80.3,73.6,29.82,South,188,9.0,-999.0,80,0.00,,,0.00,Wunderground v.1.15,2013-02-26 18:14:00,
2013-02-26 13:19:00,80.1,73.4,29.82,SSE,157,9.0,-999.0,80,0.00,,,0.00,Wunderground v.1.15,2013-02-26 18:19:00,
2013-02-26 13:24:00,79.8,73.4,29.82,SSE,160,9.0,-999.0,81,0.00,,,0.00,Wunderground v.1.15,2013-02-26 18:24:00,
2013-02-26 13:29:00,80.1,74.1,29.82,SSE,161,8.0,-999.0,82,0.00,,,0.00,Wunderground v.1.15,2013-02-26 18:29:00,
2013-02-26 13:34:00,80.3,73.6,29.81,SSE,160,9.0,-999.0,80,0.00,,,0.00,Wunderground v.1.15,2013-02-26 18:34:00,
2013-02-26 13:39:00,80.1,73.7,29.81,SE,138,10.0,-999.0,81,0.00,,,0.00,Wunderground v.1.15,2013-02-26 18:39:00,
2013-02-26 13:44:00,79.9,73.5,29.82,SSE,161,10.0,-999.0,81,0.00,,,0.00,Wunderground v.1.15,2013-02-26 18:44:00,
2013-02-26 13:49:00,79.7,73.3,29.82,SE,135,11.0,-999.0,81,0.00,,,0.00,Wunderground v.1.15,2013-02-26 18:49:00,
2013-02-26 13:54:00,79.9,73.5,29.82,SSE,155,10.0,-999.0,81,0.00,,,0.00,Wunderground v.1.15,2013-02-26 18:54:00,
2013-02-26 13:59:00,79.7,73.3,29.82,SSE,147,10.0,-999.0,81,0.00,,,0.00,Wunderground v.1.15,2013-02-26 18:59:00,
2013-02-26 14:09:00,79.5,73.5,29.82,South,181,9.0,-999.0,82,0.00,,,0.00,Wunderground v.1.15,2013-02-26 19:09:00,
2013-02-26 14:14:00,79.5,73.5,29.80,SSE,159,9.0,-999.0,82,0.00,,,0.00,Wunderground v.1.15,2013-02-26 19:14:00,
2013-02-26 14:19:00,79.2,73.2,29.81,SW,229,9.0,-999.0,82,0.00,,,0.00,Wunderground v.1.15,2013-02-26 19:19:00,
2013-02-26 14:25:00,79.2,73.6,29.80,SSW,213,9.0,-999.0,83,0.00,,,0.00,Wunderground v.1.15,2013-02-26 19:25:00,
2013-02-26 14:34:00,80.1,74.1,29.80,South,169,9.0,-999.0,82,0.00,,,0.00,Wunderground v.1.15,2013-02-26 19:34:00,
2013-02-26 14:39:00,79.8,73.8,29.81,SE,128,9.0,-999.0,82,0.00,,,0.00,Wunderground v.1.15,2013-02-26 19:39:00,
2013-02-26 14:44:00,79.3,73.7,29.80,SSE,155,10.0,-999.0,83,0.00,,,0.00,Wunderground v.1.15,2013-02-26 19:44:00,
2013-02-26 14:49:00,79.2,73.6,29.81,SW,231,9.0,-999.0,83,0.00,,,0.00,Wunderground v.1.15,2013-02-26 19:49:00,
2013-02-26 14:59:00,78.7,73.5,29.81,SSE,149,8.0,-999.0,84,0.00,,,0.00,Wunderground v.1.15,2013-02-26 19:59:00,
2013-02-26 15:04:00,78.5,73.3,29.81,SSE,157,9.0,-999.0,84,0.00,,,0.00,Wunderground v.1.15,2013-02-26 20:04:00,
2013-02-26 15:09:00,78.2,73.3,29.82,South,169,9.0,-999.0,85,0.00,,,0.00,Wunderground v.1.15,2013-02-26 20:09:00,
2013-02-26 15:14:00,78.2,73.3,29.82,SSW,194,8.0,-999.0,85,0.00,,,0.00,Wunderground v.1.15,2013-02-26 20:14:00,
2013-02-26 15:19:00,78.3,73.4,29.82,SSE,150,8.0,-999.0,85,0.00,,,0.00,Wunderground v.1.15,2013-02-26 20:19:00,
2013-02-26 15:24:00,78.2,73.3,29.82,SSW,192,8.0,-999.0,85,0.00,,,0.00,Wunderground v.1.15,2013-02-26 20:24:00,
2013-02-26 15:34:00,78.3,73.4,29.81,SE,144,8.0,-999.0,85,0.00,,,0.00,Wunderground v.1.15,2013-02-26 20:34:00,
2013-02-26 15:40:00,78.1,73.2,29.81,SSE,152,7.0,-999.0,85,0.00,,,0.00,Wunderground v.1.15,2013-02-26 20:40:00,
2013-02-26 15:49:00,77.9,73.4,29.81,SSE,159,7.0,-999.0,86,0.00,,,0.00,Wunderground v.1.15,2013-02-26 20:49:00,
2013-02-26 15:54:00,77.7,73.2,29.82,SSE,168,7.0,-999.0,86,0.00,,,0.00,Wunderground v.1.15,2013-02-26 20:54:00,
2013-02-26 15:59:00,77.5,73.3,29.81,SSE,165,6.0,-999.0,87,0.00,,,0.00,Wunderground v.1.15,2013-02-26 20:59:00,
2013-02-26 16:09:00,77.1,72.9,29.81,SSE,165,6.0,-999.0,87,0.00,,,0.00,Wunderground v.1.15,2013-02-26 21:09:00,
2013-02-26 16:14:00,77.0,73.2,29.81,South,183,7.0,-999.0,88,0.00,,,0.00,Wunderground v.1.15,2013-02-26 21:14:00,
2013-02-26 16:19:00,76.9,73.1,29.82,South,182,7.0,-999.0,88,0.00,,,0.00,Wunderground v.1.15,2013-02-26 21:19:00,
2013-02-26 16:24:00,76.8,73.3,29.81,SW,222,8.0,-999.0,89,0.00,,,0.00,Wunderground v.1.15,2013-02-26 21:24:00,
2013-02-26 16:29:00,76.6,73.4,29.82,WSW,246,7.0,-999.0,90,0.00,,,0.01,Wunderground v.1.15,2013-02-26 21:29:00,
2013-02-26 16:34:00,75.0,71.9,29.82,WSW,240,7.0,-999.0,90,0.33,,,0.07,Wunderground v.1.15,2013-02-26 21:34:00,
2013-02-26 16:39:00,73.5,70.7,29.82,WSW,241,6.0,-999.0,91,0.09,,,0.07,Wunderground v.1.15,2013-02-26 21:39:00,
2013-02-26 16:44:00,72.8,70.7,29.82,SW,234,5.0,-999.0,93,0.08,,,0.08,Wunderground v.1.15,2013-02-26 21:44:00,
2013-02-26 16:54:00,72.4,70.9,29.82,SW,235,4.0,-999.0,95,0.04,,,0.08,Wunderground v.1.15,2013-02-26 21:54:00,
2013-02-26 16:59:00,72.4,70.9,29.82,WSW,238,4.0,-999.0,95,0.00,,,0.08,Wunderground v.1.15,2013-02-26 21:59:00,
2013-02-26 17:04:00,72.2,70.4,29.82,WSW,241,4.0,-999.0,94,0.00,,,0.08,Wunderground v.1.15,2013-02-26 22:04:00,
2013-02-26 17:09:00,72.1,70.3,29.82,SW,234,4.0,-999.0,94,0.00,,,0.08,Wunderground v.1.15,2013-02-26 22:09:00,
2013-02-26 17:19:00,72.1,70.6,29.82,SW,233,3.0,-999.0,95,0.00,,,0.08,Wunderground v.1.15,2013-02-26 22:19:00,
2013-02-26 17:24:00,72.1,70.6,29.82,SW,234,2.0,-999.0,95,0.00,,,0.08,Wunderground v.1.15,2013-02-26 22:24:00,
2013-02-26 17:29:00,72.2,70.7,29.82,SW,233,2.0,-999.0,95,0.00,,,0.08,Wunderground v.1.15,2013-02-26 22:29:00,
2013-02-26 17:34:00,72.0,70.5,29.82,SW,234,3.0,-999.0,95,0.00,,,0.08,Wunderground v.1.15,2013-02-26 22:34:00,
2013-02-26 17:39:00,72.1,70.6,29.82,SW,233,2.0,-999.0,95,0.00,,,0.08,Wunderground v.1.15,2013-02-26 22:39:00,
2013-02-26 17:49:00,72.2,70.7,29.82,SW,233,2.0,-999.0,95,0.00,,,0.08,Wunderground v.1.15,2013-02-26 22:49:00,
2013-02-26 17:59:00,72.4,70.9,29.83,SW,234,2.0,-999.0,95,0.00,,,0.08,Wunderground v.1.15,2013-02-26 22:59:00,
2013-02-26 18:05:00,72.4,70.9,29.83,SSW,213,2.0,-999.0,95,0.00,,,0.08,Wunderground v.1.15,2013-02-26 23:05:00,
2013-02-26 18:14:00,72.5,70.7,29.83,SW,224,3.0,-999.0,94,0.00,,,0.08,Wunderground v.1.15,2013-02-26 23:14:00,
2013-02-26 18:19:00,72.5,70.7,29.83,SW,225,2.0,-999.0,94,0.00,,,0.08,Wunderground v.1.15,2013-02-26 23:19:00,
2013-02-26 18:24:00,72.6,70.8,29.83,SW,224,2.0,-999.0,94,0.00,,,0.08,Wunderground v.1.15,2013-02-26 23:24:00,
2013-02-26 18:29:00,72.7,70.9,29.83,SW,223,2.0,-999.0,94,0.00,,,0.08,Wunderground v.1.15,2013-02-26 23:29:00,
2013-02-26 18:35:00,72.8,71.0,29.84,SW,223,3.0,-999.0,94,0.00,,,0.08,Wunderground v.1.15,2013-02-26 23:35:00,
2013-02-26 18:44:00,72.8,71.0,29.84,SW,224,2.0,-999.0,94,0.00,,,0.08,Wunderground v.1.15,2013-02-26 23:44:00,
2013-02-26 18:49:00,72.8,71.0,29.84,SW,221,2.0,-999.0,94,0.00,,,0.08,Wunderground v.1.15,2013-02-26 23:49:00,
2013-02-26 18:54:00,72.9,71.1,29.84,SW,221,2.0,-999.0,94,0.00,,,0.08,Wunderground v.1.15,2013-02-26 23:54:00,
2013-02-26 18:59:00,72.8,71.0,29.84,SW,223,2.0,-999.0,94,0.00,,,0.08,Wunderground v.1.15,2013-02-26 23:59:00,
2013-02-26 19:09:00,72.9,71.1,29.84,SW,225,3.0,-999.0,94,0.00,,,0.08,Wunderground v.1.15,2013-02-27 00:09:00,
2013-02-26 19:14:00,72.9,71.1,29.85,WSW,238,3.0,-999.0,94,0.00,,,0.08,Wunderground v.1.15,2013-02-27 00:14:00,
2013-02-26 19:19:00,72.8,70.7,29.85,WSW,242,3.0,-999.0,93,0.00,,,0.08,Wunderground v.1.15,2013-02-27 00:19:00,
2013-02-26 19:24:00,72.8,70.0,29.85,WSW,242,3.0,-999.0,91,0.00,,,0.08,Wunderground v.1.15,2013-02-27 00:24:00,
2013-02-26 19:29:00,72.7,69.6,29.85,SW,227,3.0,-999.0,90,0.00,,,0.08,Wunderground v.1.15,2013-02-27 00:29:00,
2013-02-26 19:34:00,72.6,69.2,29.85,SW,229,3.0,-999.0,89,0.00,,,0.08,Wunderground v.1.15,2013-02-27 00:34:00,
2013-02-26 19:39:00,72.5,68.7,29.85,SW,229,2.0,-999.0,88,0.00,,,0.08,Wunderground v.1.15,2013-02-27 00:39:00,
2013-02-26 19:44:00,72.2,67.8,29.85,SW,229,2.0,-999.0,86,0.00,,,0.08,Wunderground v.1.15,2013-02-27 00:44:00,
2013-02-26 19:54:00,72.0,67.6,29.86,SW,229,1.0,-999.0,86,0.00,,,0.08,Wunderground v.1.15,2013-02-27 00:54:00,
2013-02-26 19:59:00,71.9,67.1,29.86,SW,229,1.0,-999.0,85,0.00,,,0.08,Wunderground v.1.15,2013-02-27 00:59:00,
2013-02-26 20:09:00,71.8,67.0,29.87,SW,229,1.0,-999.0,85,0.00,,,0.08,Wunderground v.1.15,2013-02-27 01:09:00,
2013-02-26 20:14:00,71.8,67.0,29.87,SW,229,1.0,-999.0,85,0.00,,,0.08,Wunderground v.1.15,2013-02-27 01:14:00,
2013-02-26 20:19:00,71.7,66.9,29.87,SW,229,0.0,-999.0,85,0.00,,,0.08,Wunderground v.1.15,2013-02-27 01:19:00,
2013-02-26 20:24:00,71.7,66.9,29.87,SW,229,1.0,-999.0,85,0.00,,,0.08,Wunderground v.1.15,2013-02-27 01:24:00,
2013-02-26 20:29:00,71.6,66.5,29.87,SW,229,1.0,-999.0,84,0.00,,,0.08,Wunderground v.1.15,2013-02-27 01:29:00,
2013-02-26 20:39:00,71.5,66.8,29.88,SW,229,1.0,-999.0,85,0.00,,,0.08,Wunderground v.1.15,2013-02-27 01:39:00,
2013-02-26 20:44:00,71.4,66.3,29.88,SW,229,1.0,-999.0,84,0.00,,,0.08,Wunderground v.1.15,2013-02-27 01:44:00,
2013-02-26 20:49:00,71.2,66.1,29.88,SW,229,0.0,-999.0,84,0.00,,,0.08,Wunderground v.1.15,2013-02-27 01:49:00,
2013-02-26 20:54:00,71.0,66.3,29.88,SW,229,1.0,-999.0,85,0.00,,,0.08,Wunderground v.1.15,2013-02-27 01:54:00,
2013-02-26 20:59:00,70.8,66.1,29.88,SW,229,1.0,-999.0,85,0.00,,,0.08,Wunderground v.1.15,2013-02-27 01:59:00,
2013-02-26 21:09:00,70.4,66.0,29.88,SW,229,0.0,-999.0,86,0.00,,,0.08,Wunderground v.1.15,2013-02-27 02:09:00,
2013-02-26 21:14:00,70.3,65.9,29.88,SW,229,0.0,-999.0,86,0.00,,,0.08,Wunderground v.1.15,2013-02-27 02:14:00,
2013-02-26 21:20:00,70.2,65.8,29.89,SW,229,0.0,-999.0,86,0.00,,,0.08,Wunderground v.1.15,2013-02-27 02:20:00,
2013-02-26 21:30:00,70.1,66.0,29.89,SW,229,1.0,-999.0,87,0.00,,,0.08,Wunderground v.1.15,2013-02-27 02:30:00,
2013-02-26 21:39:00,70.1,66.4,29.89,SW,229,0.0,-999.0,88,0.00,,,0.08,Wunderground v.1.15,2013-02-27 02:39:00,
2013-02-26 21:44:00,70.1,66.0,29.89,SW,229,0.0,-999.0,87,0.00,,,0.08,Wunderground v.1.15,2013-02-27 02:44:00,
2013-02-26 21:49:00,69.9,65.5,29.89,SW,229,0.0,-999.0,86,0.00,,,0.08,Wunderground v.1.15,2013-02-27 02:49:00,
2013-02-26 21:54:00,69.8,66.1,29.89,SW,229,0.0,-999.0,88,0.00,,,0.08,Wunderground v.1.15,2013-02-27 02:54:00,
2013-02-26 22:04:00,69.7,66.0,29.90,SW,229,0.0,-999.0,88,0.00,,,0.08,Wunderground v.1.15,2013-02-27 03:04:00,
2013-02-26 22:09:00,69.7,66.0,29.90,SW,229,0.0,-999.0,88,0.00,,,0.08,Wunderground v.1.15,2013-02-27 03:09:00,
2013-02-26 22:14:00,69.7,66.3,29.90,SW,229,0.0,-999.0,89,0.00,,,0.08,Wunderground v.1.15,2013-02-27 03:14:00,
2013-02-26 22:19:00,69.5,66.1,29.90,SW,229,0.0,-999.0,89,0.00,,,0.08,Wunderground v.1.15,2013-02-27 03:19:00,
2013-02-26 22:24:00,69.4,66.0,29.90,SW,229,0.0,-999.0,89,0.00,,,0.08,Wunderground v.1.15,2013-02-27 03:24:00,
2013-02-26 22:29:00,69.2,66.1,29.90,SW,229,0.0,-999.0,90,0.00,,,0.08,Wunderground v.1.15,2013-02-27 03:29:00,
2013-02-26 22:34:00,69.1,66.4,29.90,SW,229,0.0,-999.0,91,0.00,,,0.08,Wunderground v.1.15,2013-02-27 03:34:00,
2013-02-26 22:39:00,69.0,65.9,29.90,SW,229,0.0,-999.0,90,0.00,,,0.08,Wunderground v.1.15,2013-02-27 03:39:00,
2013-02-26 22:44:00,68.9,66.2,29.90,SW,229,0.0,-999.0,91,0.00,,,0.08,Wunderground v.1.15,2013-02-27 03:44:00,
2013-02-26 22:49:00,68.8,66.1,29.90,SW,229,0.0,-999.0,91,0.00,,,0.08,Wunderground v.1.15,2013-02-27 03:49:00,
2013-02-26 22:59:00,68.6,66.2,29.90,SW,229,0.0,-999.0,92,0.00,,,0.08,Wunderground v.1.15,2013-02-27 03:59:00,
2013-02-26 23:09:00,68.3,66.2,29.90,SW,229,0.0,-999.0,93,0.00,,,0.08,Wunderground v.1.15,2013-02-27 04:09:00,
2013-02-26 23:14:00,68.3,66.2,29.90,SW,229,0.0,-999.0,93,0.00,,,0.08,Wunderground v.1.15,2013-02-27 04:14:00,
2013-02-26 23:19:00,68.2,65.8,29.90,SW,229,0.0,-999.0,92,0.00,,,0.08,Wunderground v.1.15,2013-02-27 04:19:00,
2013-02-26 23:24:00,68.0,65.9,29.90,SW,229,0.0,-999.0,93,0.00,,,0.08,Wunderground v.1.15,2013-02-27 04:24:00,
2013-02-26 23:29:00,68.0,66.2,29.89,SW,229,0.0,-999.0,94,0.00,,,0.08,Wunderground v.1.15,2013-02-27 04:29:00,
2013-02-26 23:34:00,67.9,65.8,29.90,SW,229,0.0,-999.0,93,0.00,,,0.08,Wunderground v.1.15,2013-02-27 04:34:00,
2013-02-26 23:44:00,67.8,66.0,29.89,SW,229,0.0,-999.0,94,0.00,,,0.08,Wunderground v.1.15,2013-02-27 04:44:00,
2013-02-26 23:49:00,67.8,66.0,29.89,SW,229,0.0,-999.0,94,0.00,,,0.08,Wunderground v.1.15,2013-02-27 04:49:00,
2013-02-26 23:54:00,67.8,66.0,29.90,SW,229,0.0,-999.0,94,0.00,,,0.08,Wunderground v.1.15,2013-02-27 04:54:00,
2013-02-26 23:59:00,67.6,65.8,29.90,SW,229,0.0,-999.0,94,0.00,,,0.00,Wunderground v.1.15,2013-02-27 04:59:00,